Wind_Speed
58 56 55 54 53 52 51 52 52 53 53 53 52 51 51 52 52 53 53 53 54 55 55 55 55 54 54 53 53 54 54 54 53 53 54 53 51 50 49 49 49 49
64 62 60 59 58 57 56 56 55 55 55 55 54 53 53 53 53 53 53 53 54 55 56 56 56 55 55 55 55 56 56 55 55 55 55 54 53 51 51 51 51 51
67 65 64 63 61 60 60 60 60 59 59 58 58 56 55 55 54 54 54 55 55 56 57 57 57 57 57 57 57 57 58 58 57 58 58 57 56 54 54 54 54 54
68 66 64 64 64 63 62 62 62 62 62 62 61 60 60 59 58 57 57 58 58 58 59 59 59 59 59 59 59 59 59 59 59 59 59 59 58 57 57 57 56 56
67 67 65 64 66 66 65 63 63 63 64 64 64 63 63 62 62 61 61 61 61 61 61 61 61 61 62 62 62 62 62 61 61 60 60 59 59 58 58 58 58 57
65 67 66 65 66 67 66 65 64 64 64 65 65 65 65 66 65 64 64 64 64 64 64 64 64 64 64 64 64 64 64 63 63 62 61 60 59 59 58 58 58 59
64 66 66 65 65 66 66 65 65 65 65 65 66 67 67 67 67 67 67 68 68 67 67 66 66 66 66 66 66 66 65 65 64 63 61 60 59 59 59 59 60 59
64 64 63 62 62 63 65 67 67 67 67 67 67 67 67 67 68 68 69 69 69 68 68 67 67 67 67 67 67 66 66 65 64 63 62 61 60 61 61 61 61 60
67 66 62 58 59 62 66 69 69 68 69 69 68 68 68 68 68 69 69 69 68 68 68 67 67 67 67 67 67 66 66 65 65 64 64 63 62 63 63 63 62 61
69 67 63 59 59 62 67 69 69 67 68 69 70 70 70 70 70 71 70 70 69 69 68 68 66 66 66 66 66 66 66 66 66 66 66 66 66 65 65 65 64 62
70 69 66 62 61 63 67 69 69 69 68 68 70 71 72 73 73 73 72 72 71 71 71 70 69 68 68 68 68 68 68 68 68 67 67 67 67 66 65 64 62 60
77 76 75 71 67 67 70 73 73 72 72 71 71 73 74 75 75 75 75 75 74 74 74 73 72 72 71 70 70 70 69 69 68 67 66 65 64 63 62 61 59 57
81 81 81 80 75 71 73 77 78 77 76 74 73 74 75 76 77 77 77 78 78 78 78 77 76 75 73 72 71 70 70 69 67 66 64 63 61 61 60 60 60 60
83 83 83 83 82 78 75 78 79 80 80 78 76 75 76 77 78 78 79 79 80 80 81 81 80 77 75 74 73 72 70 69 67 66 64 62 61 61 62 63 63 63
87 88 87 87 87 86 83 82 81 81 81 82 80 78 77 78 78 78 78 79 80 81 83 83 83 81 79 76 74 72 71 70 70 69 68 65 64 64 65 66 66 64
89 90 91 90 90 89 86 84 82 81 81 83 84 82 81 79 79 78 77 77 78 80 83 84 84 82 80 78 76 73 72 71 72 72 71 69 68 68 69 68 66 65
87 88 89 90 90 88 86 82 80 78 79 82 84 85 86 85 85 84 82 81 81 81 83 85 84 83 80 79 78 76 74 74 75 75 73 71 71 71 71 69 67 65
89 89 89 89 89 89 88 86 83 80 80 81 83 85 87 88 88 88 87 87 86 85 85 86 86 84 82 81 81 80 79 78 78 76 73 72 73 73 72 70 67 66
92 91 89 88 87 87 88 88 88 87 85 84 85 86 87 88 88 89 88 88 88 87 87 87 88 86 85 84 85 85 82 79 77 73 71 72 73 73 73 71 69 68
97 93 89 87 85 84 84 86 88 89 89 88 87 87 88 89 89 90 90 90 90 89 89 88 88 87 86 86 87 86 82 79 77 76 75 73 73 73 73 72 70 69
102 98 94 90 86 84 83 84 86 89 91 91 90 89 89 90 91 91 90 90 90 90 90 89 89 89 89 88 89 87 83 80 79 77 75 73 71 71 72 71 71 71
100 101 99 95 91 86 83 84 87 89 91 92 91 91 92 91 91 90 89 89 89 90 90 89 89 89 89 88 86 85 83 82 79 76 73 70 69 70 70 71 72 72
90 93 96 97 95 91 87 85 86 89 89 90 89 90 90 91 90 90 89 88 87 87 87 86 85 85 83 83 82 81 81 80 78 76 73 71 69 70 72 73 72 72
86 87 89 92 94 95 92 90 89 89 89 88 88 87 87 87 88 89 89 86 84 82 81 80 79 78 78 78 79 78 77 77 76 76 75 73 72 71 71 73 72 71
90 90 90 90 92 94 94 93 92 92 91 91 90 88 87 87 87 88 89 88 85 82 81 80 79 78 76 76 76 76 75 76 77 77 76 76 75 73 72 71 71 71
94 91 90 91 92 93 93 92 91 91 92 93 92 92 90 90 91 92 92 92 90 88 86 84 83 82 79 77 77 76 76 77 79 78 76 75 75 75 74 73 73 74
Wind_Direction
263 260 257 255 253 251 251 251 252 253 254 254 254 254 253 253 253 254 255 256 257 258 260 261 262 262 262 262 261 260 261 262 263 264 265 266 268 270 273 275 277 277
265 263 261 258 256 254 253 252 251 251 251 252 252 253 253 253 254 254 255 255 256 256 257 258 259 260 260 261 261 263 264 264 265 266 267 268 270 272 275 276 277 278
263 263 262 261 259 257 257 256 255 254 252 251 251 252 252 253 253 254 254 255 255 256 257 257 258 258 259 259 260 261 262 263 265 266 267 269 271 273 275 276 277 278
260 262 262 263 262 261 260 259 258 257 255 255 254 253 253 253 253 253 253 254 254 255 256 257 257 258 258 259 259 260 261 262 263 264 265 267 269 271 273 275 276 277
258 258 260 261 263 264 264 263 261 259 258 257 256 255 254 254 253 253 253 253 254 254 255 256 257 258 258 259 260 260 261 261 262 263 265 267 268 270 271 273 274 276
256 255 255 257 260 262 263 264 264 264 262 261 259 258 257 256 255 254 254 254 254 255 256 257 257 258 259 260 260 261 261 262 263 264 266 267 269 269 270 272 273 274
253 252 251 253 256 258 261 263 264 266 266 266 266 265 264 263 262 261 260 258 257 257 256 257 258 259 260 260 261 261 262 262 263 265 266 267 268 269 270 271 272 272
251 251 250 251 254 258 261 263 264 265 267 268 268 269 269 269 268 267 266 265 264 262 262 262 262 262 262 262 262 262 263 263 264 265 265 266 268 269 271 271 271 271
251 251 250 251 255 259 261 262 262 264 266 267 268 269 269 269 269 269 268 268 267 267 266 266 266 266 265 265 265 265 265 265 265 266 266 267 268 270 270 270 270 270
249 248 248 250 253 256 259 259 260 262 264 266 267 268 268 269 269 269 269 269 268 267 267 266 265 265 265 265 265 265 265 265 266 266 268 269 269 269 269 269 269 269
249 247 247 249 251 254 256 257 257 259 261 263 264 265 266 267 268 269 269 269 269 268 267 266 266 265 264 264 264 264 265 266 266 267 268 269 269 269 268 268 268 267
251 250 249 250 252 253 255 256 255 255 256 259 261 262 263 265 266 267 268 269 269 269 268 268 267 267 266 266 266 266 267 268 269 270 271 271 270 270 269 269 268 268
247 249 250 252 253 254 254 255 256 256 255 255 257 258 259 260 262 263 265 266 267 267 268 268 267 267 267 267 268 268 269 270 270 270 270 270 270 270 271 271 271 271
249 250 251 254 256 258 257 256 257 258 257 256 255 256 256 257 258 259 260 262 263 264 266 267 267 267 267 267 268 269 269 268 268 268 267 267 268 269 270 271 272 272
259 257 257 258 259 261 261 260 259 259 258 257 257 256 256 256 256 257 258 260 261 262 263 264 265 266 266 266 266 266 265 265 266 266 266 266 266 266 268 269 270 271
264 264 264 264 264 264 264 263 262 260 259 258 258 258 257 257 257 257 258 259 260 261 262 262 263 264 265 266 265 263 262 262 263 266 267 266 265 265 267 268 269 270
265 265 265 266 266 266 266 264 262 260 259 258 258 258 258 258 259 259 259 259 259 260 261 262 262 262 262 263 262 262 261 261 262 264 266 265 264 265 267 268 269 270
270 269 267 266 266 266 266 264 262 259 257 257 258 259 259 259 259 260 259 259 259 260 261 263 262 262 261 261 260 261 262 263 263 263 263 263 264 266 267 268 269 270
271 271 269 268 267 267 266 265 263 261 258 257 256 256 257 258 259 259 259 260 260 260 261 262 263 263 262 262 262 263 264 265 264 263 261 262 264 266 267 268 269 270
270 269 268 267 267 266 265 264 262 260 259 257 255 255 255 255 256 257 258 259 259 260 260 261 262 262 262 263 263 263 264 264 263 263 262 262 262 264 265 267 268 269
269 268 266 265 265 264 262 261 259 258 257 256 254 254 253 253 253 254 256 257 258 259 259 259 260 260 261 262 262 262 264 265 264 264 263 261 260 261 263 265 267 268
268 268 267 265 263 262 260 257 255 255 255 254 253 252 253 253 254 254 254 255 257 258 258 258 259 259 259 259 260 262 264 265 265 263 261 259 260 261 263 265 265 266
267 268 268 267 265 262 259 256 254 253 253 253 253 252 252 253 254 255 255 255 255 255 256 257 257 258 259 259 261 262 263 263 263 262 260 260 261 263 264 266 267 267
268 268 269 269 268 265 262 258 255 254 253 254 253 253 252 252 253 254 255 256 256 255 256 256 257 258 259 260 260 260 261 262 262 262 261 261 262 263 264 266 267 269
270 269 268 269 269 268 266 262 258 256 255 255 255 255 254 255 255 254 254 254 256 256 257 257 258 258 259 259 258 259 261 263 264 264 263 263 263 264 264 265 266 267
270 268 267 267 267 267 266 265 262 259 258 257 257 256 257 258 259 259 258 256 256 256 257 258 259 260 260 260 259 260 261 262 263 265 265 266 265 265 265 265 266 266
Height
5696 5695 5694 5693 5693 5692 5693 5693 5693 5694 5694 5693 5693 5693 5693 5692 5692 5692 5693 5694 5694 5695 5696 5697 5698 5699 5700 5701 5701 5701 5701 5701 5700 5700 5700 5700 5700 5699 5699 5699 5699 5699
5690 5689 5687 5686 5685 5684 5684 5684 5684 5685 5685 5685 5685 5685 5685 5685 5685 5686 5686 5686 5686 5686 5687 5688 5689 5690 5690 5691 5692 5692 5693 5693 5693 5693 5693 5693 5692 5693 5692 5692 5692 5691
5682 5681 5680 5679 5679 5678 5678 5678 5678 5677 5676 5676 5676 5677 5677 5677 5678 5679 5679 5679 5679 5679 5679 5679 5680 5680 5681 5682 5682 5683 5683 5684 5684 5684 5684 5685 5685 5685 5685 5685 5685 5684
5673 5673 5673 5672 5672 5672 5672 5672 5672 5670 5669 5669 5669 5668 5668 5669 5669 5670 5670 5670 5671 5671 5670 5671 5671 5672 5672 5673 5673 5674 5674 5675 5675 5675 5675 5676 5676 5677 5677 5677 5677 5676
5664 5664 5664 5664 5664 5663 5664 5664 5664 5663 5662 5662 5661 5660 5660 5660 5661 5661 5661 5661 5662 5662 5662 5662 5663 5663 5664 5664 5665 5665 5666 5666 5666 5666 5667 5667 5668 5668 5668 5668 5668 5668
5655 5655 5655 5655 5655 5654 5655 5655 5655 5655 5654 5654 5653 5652 5652 5652 5652 5652 5652 5652 5653 5653 5654 5654 5654 5655 5655 5655 5656 5657 5657 5657 5658 5658 5659 5659 5659 5659 5660 5659 5659 5659
5645 5645 5645 5645 5645 5645 5645 5645 5644 5645 5645 5645 5645 5646 5645 5645 5645 5645 5644 5644 5644 5644 5645 5646 5646 5647 5647 5647 5647 5648 5649 5649 5650 5650 5651 5652 5652 5652 5652 5652 5651 5651
5636 5636 5635 5635 5636 5636 5635 5635 5634 5634 5634 5635 5636 5637 5637 5638 5638 5638 5637 5636 5637 5637 5637 5638 5638 5639 5639 5639 5639 5640 5641 5641 5642 5643 5643 5644 5644 5644 5644 5643 5643 5644
5627 5627 5626 5626 5626 5626 5626 5626 5625 5625 5624 5624 5625 5626 5627 5628 5628 5628 5628 5628 5629 5629 5629 5630 5630 5630 5630 5631 5631 5632 5632 5633 5633 5634 5634 5635 5636 5636 5635 5635 5635 5635
5616 5616 5616 5616 5616 5617 5617 5617 5616 5616 5615 5615 5615 5615 5616 5617 5616 5617 5617 5618 5619 5620 5620 5620 5621 5621 5621 5621 5622 5622 5623 5623 5624 5624 5625 5625 5626 5626 5626 5625 5626 5626
5606 5605 5605 5605 5605 5606 5607 5607 5607 5607 5606 5606 5606 5606 5606 5605 5605 5606 5606 5607 5609 5609 5609 5610 5611 5611 5611 5611 5612 5612 5612 5613 5614 5614 5615 5615 5616 5616 5616 5616 5616 5617
5594 5594 5594 5594 5594 5595 5596 5596 5596 5596 5597 5597 5596 5596 5596 5595 5595 5596 5596 5597 5598 5598 5599 5600 5600 5601 5601 5602 5602 5602 5602 5602 5603 5604 5605 5605 5605 5605 5605 5606 5606 5607
5581 5581 5581 5581 5582 5583 5584 5585 5585 5585 5586 5586 5586 5586 5586 5586 5586 5586 5586 5587 5587 5588 5589 5589 5590 5591 5592 5592 5593 5593 5593 5593 5593 5594 5594 5595 5595 5595 5596 5596 5597 5598
5569 5569 5569 5568 5569 5570 5572 5573 5574 5574 5574 5574 5574 5575 5575 5575 5575 5576 5576 5577 5578 5578 5578 5578 5579 5581 5582 5583 5584 5584 5584 5584 5584 5584 5584 5585 5585 5586 5586 5587 5588 5589
5556 5556 5556 5556 5556 5557 5558 5559 5561 5562 5562 5562 5562 5563 5564 5564 5564 5564 5565 5566 5567 5567 5568 5568 5569 5570 5572 5573 5573 5573 5574 5574 5574 5574 5574 5575 5575 5575 5576 5577 5579 5580
5543 5543 5542 5542 5542 5543 5544 5545 5547 5548 5549 5550 5550 5551 5551 5551 5552 5552 5554 5554 5555 5555 5556 5557 5559 5561 5561 5562 5562 5562 5562 5563 5563 5563 5564 5564 5564 5565 5566 5568 5570 5571
5529 5530 5529 5528 5528 5529 5530 5532 5533 5534 5535 5537 5538 5538 5539 5539 5540 5541 5542 5542 5543 5543 5543 5545 5548 5550 5550 5550 5550 5550 5550 5551 5551 5552 5553 5553 5554 5555 5556 5558 5560 5561
5513 5514 5515 5515 5515 5515 5516 5518 5519 5521 5522 5523 5524 5525 5526 5527 5528 5528 5529 5530 5530 5531 5532 5533 5535 5537 5538 5539 5539 5539 5539 5539 5539 5540 5541 5542 5543 5544 5546 5549 5550 5551
5499 5499 5500 5500 5501 5501 5502 5503 5504 5505 5507 5508 5510 5511 5512 5513 5515 5515 5516 5517 5518 5519 5521 5522 5523 5524 5525 5526 5527 5527 5528 5527 5527 5528 5529 5531 5532 5534 5536 5538 5540 5541
5482 5485 5485 5485 5486 5487 5487 5488 5488 5489 5491 5492 5494 5496 5497 5499 5500 5501 5503 5504 5505 5507 5509 5510 5512 5513 5513 5514 5514 5514 5515 5515 5515 5516 5518 5520 5522 5524 5525 5527 5530 5531
5463 5466 5469 5470 5471 5472 5473 5474 5473 5474 5475 5476 5478 5481 5482 5484 5485 5487 5489 5490 5492 5493 5495 5497 5499 5499 5500 5501 5501 5501 5501 5501 5503 5504 5506 5509 5511 5513 5515 5517 5519 5520
5447 5447 5449 5452 5455 5458 5459 5459 5459 5459 5460 5460 5463 5466 5468 5469 5470 5472 5474 5476 5478 5479 5481 5484 5486 5485 5486 5487 5488 5488 5488 5488 5490 5492 5494 5497 5500 5501 5504 5505 5507 5509
5433 5431 5431 5433 5436 5440 5443 5445 5445 5445 5445 5445 5447 5450 5453 5455 5456 5458 5460 5461 5463 5465 5466 5469 5471 5471 5472 5473 5475 5476 5476 5477 5479 5481 5483 5485 5488 5490 5492 5494 5495 5497
5418 5418 5418 5417 5418 5421 5424 5429 5431 5431 5431 5431 5432 5435 5439 5440 5442 5444 5446 5446 5448 5450 5452 5455 5458 5459 5460 5461 5463 5464 5465 5466 5468 5470 5472 5475 5477 5479 5480 5482 5484 5485
5403 5403 5404 5404 5404 5404 5406 5410 5414 5416 5417 5417 5418 5420 5423 5425 5427 5429 5431 5433 5434 5437 5439 5442 5445 5447 5448 5450 5452 5453 5454 5455 5456 5458 5462 5464 5466 5468 5470 5471 5473 5474
5388 5388 5388 5389 5390 5391 5391 5393 5396 5399 5401 5403 5403 5405 5408 5410 5412 5412 5415 5419 5421 5423 5427 5429 5431 5434 5436 5437 5439 5441 5443 5444 5445 5448 5451 5453 5454 5456 5458 5461 5462 5464